#�ϑ�����,���ϕ���,���ϕ���,�ő啗��,�ő啗����������,�ő�u�ԕ���,�ő�u�ԕ�����������
#(�N����),(m/s)   ,(16����),(m/s)   ,(16����)        ,(m/s)       ,(16����)            
2012/4/12 0:01,5.1,16,5.2,15,9.9,15
2012/4/12 0:02,5,16,5,15,6.8,16
2012/4/12 0:03,4.8,16,5,15,7.1,14
2012/4/12 0:04,5.3,16,5.3,16,13.5,16
2012/4/12 0:05,5.6,16,5.6,16,11.1,16
2012/4/12 0:06,5.6,15,5.6,16,8.1,15
2012/4/12 0:07,5.3,15,5.5,16,5.4,15
2012/4/12 0:08,5.4,15,5.4,16,10.7,16
2012/4/12 0:09,5.4,15,5.4,16,13.8,16
2012/4/12 0:10,5.7,15,5.7,15,12.8,16
2012/4/12 0:11,5.6,15,5.7,15,9.3,15
2012/4/12 0:12,5.7,15,5.8,15,8.6,16
2012/4/12 0:13,5.7,16,5.7,15,7.5,2
2012/4/12 0:14,5.3,16,5.7,15,8.9,16
2012/4/12 0:15,5.2,16,5.3,15,10.6,16
2012/4/12 0:16,5.2,16,5.3,15,7.4,16
2012/4/12 0:17,5.4,16,5.4,15,7.7,15
2012/4/12 0:18,5.2,16,5.4,15,10.5,16
2012/4/12 0:19,5.1,16,5.2,15,11.6,16
2012/4/12 0:20,4.8,16,5,15,9.9,14
2012/4/12 0:21,5.4,16,5.4,15,12.5,16
2012/4/12 0:22,5.5,16,5.5,16,9.4,15
2012/4/12 0:23,5.6,16,5.6,16,10.2,16
2012/4/12 0:24,5.6,16,5.7,16,11.3,15
2012/4/12 0:25,5.7,16,5.8,16,12.2,15
2012/4/12 0:26,6,16,6,16,11,15
2012/4/12 0:27,6,16,6,16,7.7,15
2012/4/12 0:28,6,16,6,16,9.4,16
2012/4/12 0:29,6,16,6,16,13.3,1
2012/4/12 0:30,6.1,16,6.2,16,11.9,16
2012/4/12 0:31,5.9,16,6.1,16,10.7,15
2012/4/12 0:32,5.8,16,5.9,16,9.7,15
2012/4/12 0:33,5.7,16,5.8,16,7.8,16
2012/4/12 0:34,5.9,16,5.9,16,12.7,1
2012/4/12 0:35,5.8,16,5.9,16,11,15
2012/4/12 0:36,5.8,16,5.8,16,10.6,15
2012/4/12 0:37,5.9,16,6,16,10.9,14
2012/4/12 0:38,6.2,16,6.2,16,12.7,15
2012/4/12 0:39,6.4,16,6.4,16,10.8,15
2012/4/12 0:40,6.4,16,6.4,16,11.3,16
2012/4/12 0:41,6.2,15,6.4,16,10.8,16
2012/4/12 0:42,6.3,15,6.3,16,10.1,15
2012/4/12 0:43,6.6,15,6.6,15,11.8,16
2012/4/12 0:44,6.7,15,6.7,15,9.9,14
2012/4/12 0:45,6.5,15,6.7,15,10.8,15
2012/4/12 0:46,6.4,15,6.5,15,10.2,15
2012/4/12 0:47,6.3,15,6.5,15,8.2,16
2012/4/12 0:48,5.8,15,6.3,15,4.8,1
2012/4/12 0:49,5.4,15,5.7,15,8.4,15
2012/4/12 0:50,5.1,15,5.4,15,5.5,16
2012/4/12 0:51,5.2,15,5.2,15,12.5,16
2012/4/12 0:52,4.8,15,5.2,15,4.8,15
2012/4/12 0:53,4.5,15,4.8,15,7.6,13
2012/4/12 0:54,4.2,15,4.5,15,8.2,13
2012/4/12 0:55,3.9,15,4.2,15,4.4,16
2012/4/12 0:56,3.6,15,3.9,15,4.9,15
2012/4/12 0:57,3.7,15,3.7,15,10.1,12
2012/4/12 0:58,4.2,15,4.2,15,13,16
2012/4/12 0:59,4.6,15,4.6,15,12.7,15
2012/4/12 1:00,4.8,15,4.8,15,7.9,2
2012/4/12 1:01,4.3,15,4.8,15,7.9,1
2012/4/12 1:02,4.3,15,4.4,15,6.2,16
2012/4/12 1:03,4,15,4.3,15,3,14
2012/4/12 1:04,3.9,15,4,15,4.2,15
2012/4/12 1:05,4.4,15,4.4,15,11,14
2012/4/12 1:06,4.6,15,4.6,15,10,16
2012/4/12 1:07,4.2,15,4.5,15,2,12
2012/4/12 1:08,3.6,15,4.1,15,6.5,9
2012/4/12 1:09,3,15,3.5,15,4.1,16
2012/4/12 1:10,2.8,15,3,15,7.5,16
2012/4/12 1:11,2.9,15,2.9,15,5.6,16
2012/4/12 1:12,3.1,15,3.1,15,7.1,16
2012/4/12 1:13,3.2,15,3.2,15,5.1,13
2012/4/12 1:14,3.5,15,3.5,15,11.1,16
2012/4/12 1:15,3.3,15,3.6,15,11.7,15
2012/4/12 1:16,3.4,15,3.4,15,11.8,15
2012/4/12 1:17,3.9,15,3.9,16,11.1,15
2012/4/12 1:18,4.5,15,4.5,15,13.5,16
2012/4/12 1:19,5.2,15,5.2,15,14.3,15
2012/4/12 1:20,5.3,16,5.4,15,6.8,16
2012/4/12 1:21,5.6,16,5.6,16,10.5,15
2012/4/12 1:22,5.9,16,5.9,16,11.5,16
2012/4/12 1:23,6.3,16,6.3,16,14.7,15
2012/4/12 1:24,6,16,6.4,16,4.8,1
2012/4/12 1:25,5.7,16,6,16,6.2,1
2012/4/12 1:26,5.5,16,5.7,16,3.9,2
2012/4/12 1:27,5.3,16,5.5,16,7.6,1
2012/4/12 1:28,5,16,5.3,16,8.3,15
2012/4/12 1:29,4.5,16,4.9,16,6.7,15
2012/4/12 1:30,4.5,16,4.5,16,7,15
2012/4/12 1:31,4.4,16,4.4,16,11.4,16
2012/4/12 1:32,4.2,16,4.4,16,7.8,16
2012/4/12 1:33,4.1,16,4.2,16,7.9,14
2012/4/12 1:34,4.1,16,4.1,16,5.4,14
2012/4/12 1:35,4.2,15,4.2,16,4.7,13
2012/4/12 1:36,4,15,4.2,16,2.9,16
2012/4/12 1:37,3.9,15,4.1,16,4.4,13
2012/4/12 1:38,3.7,15,3.8,16,5.7,16
2012/4/12 1:39,3.8,15,3.8,16,7.1,15
2012/4/12 1:40,3.7,15,3.8,16,6.9,16
2012/4/12 1:41,3.7,15,3.7,16,9.1,15
2012/4/12 1:42,3.4,14,3.6,16,6.3,14
2012/4/12 1:43,3.1,15,3.4,16,2.6,16
2012/4/12 1:44,3,15,3.1,16,4.2,1
2012/4/12 1:45,3,15,3,15,3.7,1
2012/4/12 1:46,3,15,3,15,5.8,16
2012/4/12 1:47,3.1,16,3.1,15,5.7,13
2012/4/12 1:48,3.5,15,3.5,15,12.2,15
2012/4/12 1:49,3.4,15,3.6,15,6.4,15
2012/4/12 1:50,3.5,15,3.5,15,6.3,13
2012/4/12 1:51,3.3,15,3.5,15,8.1,13
2012/4/12 1:52,3.1,15,3.3,15,3.2,15
2012/4/12 1:53,3.2,15,3.2,15,7.7,9
2012/4/12 1:54,3.2,15,3.2,15,4.3,1
2012/4/12 1:55,3.1,15,3.2,15,4.1,16
2012/4/12 1:56,3.4,15,3.4,15,9.2,16
2012/4/12 1:57,3.4,15,3.5,15,7.4,15
2012/4/12 1:58,3,15,3.4,15,5.4,15
2012/4/12 1:59,3,15,3,15,5.5,16
2012/4/12 2:00,3,15,3,15,6.3,14
2012/4/12 2:01,2.9,15,3,15,5.1,13
2012/4/12 2:02,3,15,3,15,4.1,13
2012/4/12 2:03,2.9,15,3,15,3.1,14
2012/4/12 2:04,3.1,15,3.1,15,6.5,14
2012/4/12 2:05,3.1,15,3.1,15,2,14
2012/4/12 2:06,2.8,14,3.1,15,4.8,16
2012/4/12 2:07,2.6,14,2.8,15,3.3,16
2012/4/12 2:08,2.4,14,2.6,15,2.2,16
2012/4/12 2:09,2.3,14,2.4,15,4.3,16
2012/4/12 2:10,2.1,15,2.3,15,3,16
2012/4/12 2:11,1.9,15,2.1,15,1.6,15
2012/4/12 2:12,1.7,15,1.8,15,1.8,9
2012/4/12 2:13,1.6,15,1.7,15,1.1,16
2012/4/12 2:14,1.4,15,1.6,15,2.2,16
2012/4/12 2:15,1.3,16,1.4,14,1.4,15
2012/4/12 2:16,1.1,15,1.3,14,2.4,15
2012/4/12 2:17,1.1,15,1.1,14,3.5,15
2012/4/12 2:18,1.3,15,1.3,14,3.9,14
2012/4/12 2:19,1.3,15,1.4,14,2.9,14
2012/4/12 2:20,1.4,15,1.4,15,4.2,16
2012/4/12 2:21,1.7,15,1.7,15,4.8,15
2012/4/12 2:22,1.9,15,1.9,15,4.5,14
2012/4/12 2:23,2.2,15,2.2,15,4.7,15
2012/4/12 2:24,2.3,15,2.3,15,4.7,15
2012/4/12 2:25,2.6,15,2.6,15,5.2,15
2012/4/12 2:26,2.7,15,2.8,15,4.1,15
2012/4/12 2:27,2.6,15,2.7,15,2.7,14
2012/4/12 2:28,2.5,15,2.6,15,2.7,13
2012/4/12 2:29,2.4,15,2.5,15,2.5,16
2012/4/12 2:30,2.5,15,2.5,15,4.9,16
2012/4/12 2:31,2.5,15,2.5,15,5.7,16
2012/4/12 2:32,2.5,15,2.5,15,3.9,13
2012/4/12 2:33,2.5,15,2.5,15,5.4,16
2012/4/12 2:34,2.6,15,2.6,15,5.6,15
2012/4/12 2:35,2.8,15,2.8,15,7.9,16
2012/4/12 2:36,2.9,15,2.9,15,5.1,15
2012/4/12 2:37,3.2,15,3.2,15,7.2,16
2012/4/12 2:38,3.3,15,3.3,15,4.9,16
2012/4/12 2:39,3.6,15,3.6,15,5.7,14
2012/4/12 2:40,3.7,15,3.7,15,5.1,14
2012/4/12 2:41,3.7,15,3.7,15,5.1,15
2012/4/12 2:42,3.6,15,3.6,15,4.2,14
2012/4/12 2:43,3.6,15,3.6,15,4.9,16
2012/4/12 2:44,3.5,15,3.6,15,4.9,16
2012/4/12 2:45,3.2,15,3.4,15,3.1,13
2012/4/12 2:46,3,15,3.1,15,3.1,14
2012/4/12 2:47,2.8,15,3,15,3.1,14
2012/4/12 2:48,2.6,15,2.8,15,2.4,16
2012/4/12 2:49,2.5,15,2.6,15,3.7,16
2012/4/12 2:50,2.3,15,2.5,15,4.3,15
2012/4/12 2:51,2.3,15,2.3,15,3.9,15
2012/4/12 2:52,2.2,15,2.3,15,3.7,15
2012/4/12 2:53,2.1,15,2.2,15,2.4,14
2012/4/12 2:54,2,15,2.1,15,3.9,16
2012/4/12 2:55,2,15,2.1,15,2.7,16
2012/4/12 2:56,2.2,15,2.2,15,5.2,15
2012/4/12 2:57,2.2,15,2.2,15,5.1,16
2012/4/12 2:58,2.4,15,2.4,15,4.2,15
2012/4/12 2:59,2.3,15,2.4,15,3.7,15
2012/4/12 3:00,2.5,15,2.5,15,4.9,16
2012/4/12 3:01,2.5,15,2.5,15,4.3,16
2012/4/12 3:02,2.5,15,2.5,15,4.1,14
2012/4/12 3:03,2.6,15,2.6,15,4.3,15
2012/4/12 3:04,2.7,15,2.7,15,3.8,16
2012/4/12 3:05,2.8,15,2.8,15,6.8,15
2012/4/12 3:06,3,15,3,15,7.1,15
2012/4/12 3:07,3.2,15,3.2,15,6.8,15
2012/4/12 3:08,3.4,16,3.4,16,6,1
2012/4/12 3:09,3.4,16,3.4,16,4.1,16
2012/4/12 3:10,3.1,16,3.3,16,2.1,5
2012/4/12 3:11,3,16,3.1,16,2.2,4
2012/4/12 3:12,2.8,16,2.9,16,2,16
2012/4/12 3:13,2.8,16,2.8,16,2.4,16
2012/4/12 3:14,2.7,16,2.8,16,3.2,14
2012/4/12 3:15,2.5,16,2.7,16,2.7,14
2012/4/12 3:16,2.3,16,2.5,16,3.3,16
2012/4/12 3:17,2,16,2.2,16,3.7,15
2012/4/12 3:18,1.8,16,2,16,4.8,16
2012/4/12 3:19,1.9,15,1.9,16,5.1,1
2012/4/12 3:20,2,15,2,16,3.9,16
2012/4/12 3:21,2.3,15,2.3,16,6.2,15
2012/4/12 3:22,2.5,15,2.5,16,5.7,15
2012/4/12 3:23,2.6,15,2.6,16,3.9,1
2012/4/12 3:24,2.6,15,2.6,16,3.6,16
2012/4/12 3:25,2.8,15,2.8,15,5.4,14
2012/4/12 3:26,2.9,15,2.9,15,5.6,16
2012/4/12 3:27,3,15,3,15,5,15
2012/4/12 3:28,3,15,3,15,3.7,16
2012/4/12 3:29,2.8,15,3,15,2,2
2012/4/12 3:30,2.8,15,2.8,15,3.3,14
2012/4/12 3:31,2.6,15,2.8,15,2.7,13
2012/4/12 3:32,2.5,15,2.6,15,3.6,14
2012/4/12 3:33,2.5,15,2.5,15,4.1,16
2012/4/12 3:34,2.5,15,2.5,15,4.3,15
2012/4/12 3:35,2.5,15,2.5,15,3.5,13
2012/4/12 3:36,2.3,15,2.4,15,3.3,15
2012/4/12 3:37,2.1,15,2.3,15,2.9,16
2012/4/12 3:38,2.2,15,2.2,15,4.7,14
2012/4/12 3:39,2.3,14,2.3,15,3,14
2012/4/12 3:40,2.2,14,2.3,15,1.9,13
2012/4/12 3:41,2.1,14,2.2,15,1.4,12
2012/4/12 3:42,2,14,2.1,15,1.4,14
2012/4/12 3:43,1.9,15,1.9,15,2.5,1
2012/4/12 3:44,1.7,15,1.8,15,3,1
2012/4/12 3:45,1.5,15,1.6,15,1.8,16
2012/4/12 3:46,1.5,15,1.5,15,2,1
2012/4/12 3:47,1.5,15,1.5,15,3.1,14
2012/4/12 3:48,1.4,15,1.5,15,4.1,15
2012/4/12 3:49,1.4,15,1.4,14,3.3,16
2012/4/12 3:50,1.4,16,1.4,14,2.7,16
2012/4/12 3:51,1.5,16,1.5,14,2.2,15
2012/4/12 3:52,1.5,16,1.5,14,1.9,16
2012/4/12 3:53,1.5,16,1.5,15,2,1
2012/4/12 3:54,1.5,16,1.5,15,1.5,16
2012/4/12 3:55,1.5,16,1.5,15,2.1,1
2012/4/12 3:56,1.5,16,1.5,15,2,16
2012/4/12 3:57,1.4,16,1.5,15,2,13
2012/4/12 3:58,1.3,16,1.4,16,2,15
2012/4/12 3:59,1.2,16,1.3,16,2.6,13
2012/4/12 4:00,1.2,15,1.3,16,2.2,13
2012/4/12 4:01,1.2,15,1.2,16,1.4,12
2012/4/12 4:02,1.2,15,1.2,16,2.5,13
2012/4/12 4:03,1.2,14,1.2,16,1.9,13
2012/4/12 4:04,1.2,14,1.2,16,1.3,1
2012/4/12 4:05,1.2,14,1.2,16,1,2
2012/4/12 4:06,1.2,14,1.2,16,1.8,16
2012/4/12 4:07,1.2,14,1.2,16,2.4,16
2012/4/12 4:08,1.1,14,1.2,16,1.4,12
2012/4/12 4:09,1.1,15,1.1,16,3.3,2
2012/4/12 4:10,1.2,15,1.2,15,5.1,2
2012/4/12 4:11,1.4,16,1.4,16,3.9,16
2012/4/12 4:12,1.5,16,1.5,16,4.1,16
2012/4/12 4:13,1.7,16,1.7,16,4.9,16
2012/4/12 4:14,1.7,16,1.7,16,2.4,16
2012/4/12 4:15,1.7,16,1.7,16,1.8,16
2012/4/12 4:16,1.8,16,1.8,16,2.5,15
2012/4/12 4:17,1.9,16,1.9,16,3.6,16
2012/4/12 4:18,2,16,2,16,3.2,11
2012/4/12 4:19,2,16,2,16,2.4,13
2012/4/12 4:20,1.9,16,2,16,3.7,15
2012/4/12 4:21,2,16,2,16,3.9,1
2012/4/12 4:22,1.9,15,2,16,4.3,15
2012/4/12 4:23,2,15,2,16,6,15
2012/4/12 4:24,2.4,15,2.4,15,7.1,16
2012/4/12 4:25,2.8,15,2.8,15,8.4,16
2012/4/12 4:26,3.2,15,3.2,15,8.6,16
2012/4/12 4:27,3.3,15,3.3,15,7.8,15
2012/4/12 4:28,3.4,16,3.4,16,4.4,2
2012/4/12 4:29,3.4,16,3.4,16,2.7,3
2012/4/12 4:30,3.3,16,3.4,16,0.9,9
2012/4/12 4:31,3,16,3.2,16,0.6,2
2012/4/12 4:32,2.8,16,3,16,1,16
2012/4/12 4:33,2.5,16,2.8,16,1.1,15
2012/4/12 4:34,2.1,1,2.5,16,2.7,3
2012/4/12 4:35,1.8,1,2.1,16,2.9,5
2012/4/12 4:36,1.4,1,1.8,16,1.9,16
2012/4/12 4:37,1.1,1,1.3,16,3.1,15
2012/4/12 4:38,1.1,1,1.1,16,3,14
2012/4/12 4:39,1.1,16,1.1,16,2.1,13
2012/4/12 4:40,1.2,16,1.2,16,2.1,15
2012/4/12 4:41,1.2,16,1.2,16,1.8,16
2012/4/12 4:42,1.4,16,1.4,16,3.3,16
2012/4/12 4:43,1.6,16,1.6,16,7.1,16
2012/4/12 4:44,1.9,15,1.9,1,7.8,15
2012/4/12 4:45,2,15,2,15,4.1,16
2012/4/12 4:46,2.2,15,2.2,15,4.2,16
2012/4/12 4:47,2.4,15,2.4,15,5,15
2012/4/12 4:48,2.5,15,2.5,15,5.2,15
2012/4/12 4:49,2.6,15,2.6,15,3.9,15
2012/4/12 4:50,2.6,15,2.6,15,2.4,16
2012/4/12 4:51,2.7,16,2.7,16,3.6,1
2012/4/12 4:52,3,16,3,16,6.1,16
2012/4/12 4:53,3.1,16,3.2,16,7.4,2
2012/4/12 4:54,3,16,3.1,16,4.4,1
2012/4/12 4:55,3,16,3,16,3.9,1
2012/4/12 4:56,2.8,1,2.9,16,2.7,2
2012/4/12 4:57,2.5,1,2.8,16,2.6,1
2012/4/12 4:58,2.4,1,2.5,16,4.8,16
2012/4/12 4:59,2.4,1,2.4,16,3.7,16
2012/4/12 5:00,2.5,1,2.5,16,2.9,15
2012/4/12 5:01,2.4,1,2.5,16,2.1,16
2012/4/12 5:02,2.3,1,2.4,16,3.2,1
2012/4/12 5:03,2.2,1,2.3,16,6,16
2012/4/12 5:04,2.1,1,2.2,16,4.3,16
2012/4/12 5:05,2.1,16,2.2,16,3.5,16
2012/4/12 5:06,2.1,16,2.1,1,3,15
2012/4/12 5:07,2.2,16,2.2,1,3.3,16
2012/4/12 5:08,2.2,16,2.2,1,3.2,16
2012/4/12 5:09,2.2,16,2.2,1,3.8,1
2012/4/12 5:10,2.2,16,2.2,1,4.7,1
2012/4/12 5:11,2.2,16,2.2,1,3.7,16
2012/4/12 5:12,2.2,16,2.3,1,2.5,15
2012/4/12 5:13,2,16,2.1,16,3.9,16
2012/4/12 5:14,2.1,16,2.1,16,5.2,16
2012/4/12 5:15,2.4,16,2.4,16,5.5,16
2012/4/12 5:16,2.5,16,2.5,16,4.3,15
2012/4/12 5:17,2.6,16,2.6,16,5.2,15
2012/4/12 5:18,2.7,16,2.7,16,3.7,1
2012/4/12 5:19,2.7,16,2.7,16,3,16
2012/4/12 5:20,2.9,16,2.9,16,6.2,1
2012/4/12 5:21,3,16,3,16,5.4,1
2012/4/12 5:22,3.2,16,3.2,16,6.4,16
2012/4/12 5:23,3,16,3.2,16,3.2,1
2012/4/12 5:24,2.9,16,3,16,3.9,15
2012/4/12 5:25,2.8,16,2.9,16,5,16
2012/4/12 5:26,2.9,16,2.9,16,5.1,15
2012/4/12 5:27,2.7,16,2.8,16,3.2,16
2012/4/12 5:28,2.6,16,2.7,16,3.7,16
2012/4/12 5:29,2.5,16,2.6,16,3.7,16
2012/4/12 5:30,2.2,15,2.5,16,3.6,16
2012/4/12 5:31,2.1,15,2.2,16,4.4,16
2012/4/12 5:32,2.1,15,2.1,16,6.4,16
2012/4/12 5:33,2.4,16,2.4,16,7,16
2012/4/12 5:34,2.4,16,2.5,16,4.8,16
2012/4/12 5:35,2.3,16,2.4,16,2.9,15
2012/4/12 5:36,2.2,16,2.2,16,3.9,16
2012/4/12 5:37,2.2,15,2.2,16,2.7,15
2012/4/12 5:38,2.2,15,2.3,16,3.7,15
2012/4/12 5:39,2.2,16,2.2,16,2.9,15
2012/4/12 5:40,2.2,16,2.3,16,3.3,15
2012/4/12 5:41,2.2,16,2.2,16,2.7,16
2012/4/12 5:42,2.1,16,2.2,16,3.9,16
2012/4/12 5:43,2,15,2.1,16,4.5,15
2012/4/12 5:44,2.1,15,2.1,16,4.4,15
2012/4/12 5:45,2.3,15,2.3,15,4.3,15
2012/4/12 5:46,2.3,15,2.4,15,3.9,15
2012/4/12 5:47,2.4,15,2.4,15,4.2,16
2012/4/12 5:48,2.5,16,2.5,15,4.4,16
2012/4/12 5:49,2.7,15,2.7,15,4.1,16
2012/4/12 5:50,2.7,16,2.8,15,3.5,15
2012/4/12 5:51,2.7,16,2.7,15,2,1
2012/4/12 5:52,2.6,16,2.7,15,2.1,1
2012/4/12 5:53,2.4,16,2.6,15,2.1,1
2012/4/12 5:54,2.1,16,2.4,15,1.5,1
2012/4/12 5:55,1.8,16,2.1,15,0.5,3
2012/4/12 5:56,1.6,16,1.8,15,0.8,1
2012/4/12 5:57,1.4,1,1.6,15,1,2
2012/4/12 5:58,1.1,1,1.4,15,0.4,2
2012/4/12 5:59,0.8,1,1.1,15,0.6,4
2012/4/12 6:00,0.7,1,0.8,16,1.1,3
2012/4/12 6:01,0.6,2,0.7,16,0.9,1
2012/4/12 6:02,0.6,2,0.6,16,1.6,16
2012/4/12 6:03,0.5,2,0.5,16,1.5,1
2012/4/12 6:04,0.5,1,0.5,16,1.5,1
2012/4/12 6:05,0.6,1,0.6,16,1.5,16
2012/4/12 6:06,0.6,1,0.6,16,1.4,16
2012/4/12 6:07,0.6,1,0.6,1,2.1,16
2012/4/12 6:08,0.8,1,0.8,1,3.5,1
2012/4/12 6:09,1,1,1,1,3.5,1
2012/4/12 6:10,1.2,1,1.2,1,3.6,16
2012/4/12 6:11,1.3,16,1.3,16,2.7,16
2012/4/12 6:12,1.3,1,1.3,16,2,16
2012/4/12 6:13,1.3,1,1.4,1,2,2
2012/4/12 6:14,1.4,1,1.4,1,2.6,2
2012/4/12 6:15,1.5,1,1.5,1,2.5,1
2012/4/12 6:16,1.5,1,1.5,1,1.6,2
2012/4/12 6:17,1.4,1,1.5,1,1,5
2012/4/12 6:18,1.4,2,1.5,1,1.1,5
2012/4/12 6:19,1.2,2,1.4,1,0.9,1
2012/4/12 6:20,1,2,1.2,1,0.9,1
2012/4/12 6:21,0.9,2,1,1,0.8,1
2012/4/12 6:22,0.7,2,0.9,1,0.3,1
2012/4/12 6:23,0.7,2,0.7,1,1.1,3
2012/4/12 6:24,0.6,2,0.7,1,1.1,3
2012/4/12 6:25,0.5,3,0.6,1,0.6,5
2012/4/12 6:26,0.5,3,0.5,1,0.6,3
2012/4/12 6:27,0.4,2,0.5,1,0.1,16
2012/4/12 6:28,0.3,2,0.4,2,0.3,16
2012/4/12 6:29,0.3,2,0.3,2,0.5,16
2012/4/12 6:30,0.3,2,0.3,2,0.8,4
2012/4/12 6:31,0.3,2,0.3,2,0.6,3
2012/4/12 6:32,0.3,2,0.3,2,0.4,3
2012/4/12 6:33,0.3,2,0.3,2,0.9,3
2012/4/12 6:34,0.2,2,0.3,2,0.8,2
2012/4/12 6:35,0.2,2,0.2,3,0.6,5
2012/4/12 6:36,0.3,3,0.3,3,1.3,6
2012/4/12 6:37,0.4,4,0.4,2,1.3,6
2012/4/12 6:38,0.4,4,0.4,4,0.8,6
2012/4/12 6:39,0.4,5,0.4,4,0.6,6
2012/4/12 6:40,0.5,5,0.5,5,1.9,3
2012/4/12 6:41,0.6,5,0.6,5,1.8,3
2012/4/12 6:42,0.7,5,0.7,5,1.4,3
2012/4/12 6:43,0.7,5,0.7,5,0.8,6
2012/4/12 6:44,0.7,5,0.7,5,1.3,5
2012/4/12 6:45,0.8,5,0.8,5,1.3,5
2012/4/12 6:46,0.7,5,0.8,5,0.5,7
2012/4/12 6:47,0.6,5,0.7,5,0.3,4
2012/4/12 6:48,0.6,5,0.6,5,0.4,10
2012/4/12 6:49,0.6,5,0.6,5,0.5,10
2012/4/12 6:50,0.5,6,0.6,5,0.5,8
2012/4/12 6:51,0.4,7,0.5,5,0.1,8
2012/4/12 6:52,0.3,7,0.4,5,0,8
2012/4/12 6:53,0.3,7,0.3,5,0.1,8
2012/4/12 6:54,0.2,7,0.3,5,0.4,1
2012/4/12 6:55,0.1,7,0.2,5,0.4,1
2012/4/12 6:56,0.1,6,0.1,5,0,1
2012/4/12 6:57,0.1,6,0.1,5,0.4,7
2012/4/12 6:58,0.1,5,0.1,5,0.5,8
2012/4/12 6:59,0.1,4,0.1,5,0.9,3
2012/4/12 7:00,0.2,4,0.2,6,0.9,6
2012/4/12 7:01,0.2,4,0.2,7,1.4,6
2012/4/12 7:02,0.3,4,0.3,7,1.5,6
2012/4/12 7:03,0.4,4,0.4,4,1.4,6
2012/4/12 7:04,0.5,5,0.5,4,1.3,6
2012/4/12 7:05,0.5,5,0.5,4,1,6
2012/4/12 7:06,0.5,6,0.5,4,0.6,9
2012/4/12 7:07,0.6,6,0.6,6,1.1,6
2012/4/12 7:08,0.7,6,0.7,6,1,6
2012/4/12 7:09,0.6,6,0.7,6,0.9,2
2012/4/12 7:10,0.6,6,0.6,6,0.6,5
2012/4/12 7:11,0.6,6,0.6,6,0.5,4
2012/4/12 7:12,0.5,5,0.6,6,1,1
2012/4/12 7:13,0.4,5,0.5,6,0.6,2
2012/4/12 7:14,0.4,4,0.4,6,1,2
2012/4/12 7:15,0.5,4,0.5,6,1.6,2
2012/4/12 7:16,0.6,3,0.6,6,1.4,2
2012/4/12 7:17,0.6,3,0.6,6,1.4,2
2012/4/12 7:18,0.6,3,0.6,6,1.5,3
2012/4/12 7:19,0.7,3,0.7,3,1.4,3
2012/4/12 7:20,0.8,3,0.8,3,1.8,3
2012/4/12 7:21,0.9,3,0.9,3,1.8,4
2012/4/12 7:22,1,3,1,3,1.8,6
2012/4/12 7:23,1.1,3,1.1,3,2.4,5
2012/4/12 7:24,1.2,4,1.2,4,2.2,5
2012/4/12 7:25,1.2,4,1.2,4,1.6,5
2012/4/12 7:26,1.1,4,1.2,4,1,6
2012/4/12 7:27,1.1,5,1.1,4,1.3,7
2012/4/12 7:28,1.1,5,1.1,4,1.4,6
2012/4/12 7:29,1.1,5,1.1,4,1.3,5
2012/4/12 7:30,1,6,1.1,4,1.5,6
2012/4/12 7:31,1,6,1,4,1.3,6
2012/4/12 7:32,1,6,1,4,1.5,5
2012/4/12 7:33,0.9,6,1,4,1.5,6
2012/4/12 7:34,0.8,5,0.9,4,1.3,3
2012/4/12 7:35,0.8,5,0.8,4,1.3,6
2012/4/12 7:36,0.9,5,0.9,5,1.3,5
2012/4/12 7:37,0.9,5,0.9,5,1.8,6
2012/4/12 7:38,1,5,1,5,1.8,6
2012/4/12 7:39,1,5,1,5,1.4,6
2012/4/12 7:40,1,5,1,6,1.4,6
2012/4/12 7:41,0.9,5,1,6,1.5,6
2012/4/12 7:42,0.9,5,1,6,1.4,6
2012/4/12 7:43,0.9,6,0.9,5,1.8,8
2012/4/12 7:44,0.9,6,0.9,5,1,7
2012/4/12 7:45,1,6,1,5,1.9,8
2012/4/12 7:46,1,6,1,5,1.8,7
2012/4/12 7:47,1,7,1,5,1.6,9
2012/4/12 7:48,0.9,7,1,5,1.6,8
2012/4/12 7:49,0.9,7,0.9,5,1.8,8
2012/4/12 7:50,0.9,7,0.9,5,1.1,8
2012/4/12 7:51,0.8,8,0.9,5,0.6,10
2012/4/12 7:52,0.8,8,0.8,6,1.3,8
2012/4/12 7:53,0.8,8,0.8,6,1.3,8
2012/4/12 7:54,0.8,8,0.8,6,1.5,9
2012/4/12 7:55,0.8,9,0.8,6,1.4,9
2012/4/12 7:56,0.8,9,0.8,6,1.9,8
2012/4/12 7:57,0.8,9,0.8,7,1.4,11
2012/4/12 7:58,0.8,9,0.8,7,2.1,10
2012/4/12 7:59,0.7,9,0.8,7,0.8,8
2012/4/12 8:00,0.7,9,0.7,7,1.6,8
2012/4/12 8:01,0.8,9,0.8,8,1.9,9
2012/4/12 8:02,0.8,9,0.8,8,1.5,9
2012/4/12 8:03,0.8,9,0.8,8,1.3,9
2012/4/12 8:04,0.7,10,0.8,8,1.6,9
2012/4/12 8:05,0.6,10,0.7,9,0.8,12
2012/4/12 8:06,0.6,10,0.6,9,0.8,7
2012/4/12 8:07,0.5,10,0.6,9,0.9,9
2012/4/12 8:08,0.5,10,0.5,9,1.6,9
2012/4/12 8:09,0.6,9,0.6,9,2,9
2012/4/12 8:10,0.6,10,0.6,9,1,12
2012/4/12 8:11,0.6,9,0.6,9,1.8,7
2012/4/12 8:12,0.7,9,0.7,9,2.9,8
2012/4/12 8:13,0.8,9,0.8,9,2.6,8
2012/4/12 8:14,0.9,8,0.9,9,1.9,8
2012/4/12 8:15,1,8,1,8,2.2,8
2012/4/12 8:16,1.1,8,1.1,8,1.9,7
2012/4/12 8:17,1.1,8,1.1,8,0.9,7
2012/4/12 8:18,1.1,8,1.2,8,1.6,8
2012/4/12 8:19,1.1,8,1.1,8,2.6,8
2012/4/12 8:20,1.2,8,1.2,8,2.4,9
2012/4/12 8:21,1.2,8,1.3,8,1.6,11
2012/4/12 8:22,1.1,8,1.2,8,1.6,8
2012/4/12 8:23,1,9,1.1,8,1.4,11
2012/4/12 8:24,1,9,1,8,2.7,7
2012/4/12 8:25,0.9,9,1,8,2.1,9
2012/4/12 8:26,0.9,10,0.9,8,1.9,9
2012/4/12 8:27,1,10,1,8,3,8
2012/4/12 8:28,1,9,1,8,2,7
2012/4/12 8:29,1.1,9,1.1,8,2.4,7
2012/4/12 8:30,1.1,9,1.1,8,2,8
2012/4/12 8:31,1.1,8,1.1,8,1.4,8
2012/4/12 8:32,1,8,1.1,9,0.8,7
2012/4/12 8:33,1,8,1,9,0.1,9
2012/4/12 8:34,0.9,8,1,9,0.1,15
2012/4/12 8:35,0.8,8,0.9,9,2.2,8
2012/4/12 8:36,0.9,8,0.9,9,3.5,8
2012/4/12 8:37,0.8,8,0.9,9,2.6,9
2012/4/12 8:38,0.8,8,0.8,9,1.6,6
2012/4/12 8:39,0.7,8,0.8,9,2.7,7
2012/4/12 8:40,0.8,9,0.8,9,3.2,9
2012/4/12 8:41,0.9,9,0.9,8,3.3,8
2012/4/12 8:42,1,9,1,8,2.4,9
2012/4/12 8:43,1,9,1,8,1,7
2012/4/12 8:44,1.1,9,1.1,9,1.9,8
2012/4/12 8:45,1.1,9,1.1,9,1.9,10
2012/4/12 8:46,1.1,9,1.1,9,3,9
2012/4/12 8:47,1.2,9,1.2,9,3,8
2012/4/12 8:48,1.3,9,1.3,9,1.1,9
2012/4/12 8:49,1.3,9,1.3,9,1.8,11
2012/4/12 8:50,1.1,9,1.2,9,1.4,10
2012/4/12 8:51,1,9,1.1,9,2,6
2012/4/12 8:52,1.1,9,1.1,9,2,6
2012/4/12 8:53,1.1,8,1.1,9,1.8,5
2012/4/12 8:54,1.1,8,1.1,9,1.8,5
2012/4/12 8:55,1.2,7,1.2,9,1.6,4
2012/4/12 8:56,1.1,7,1.2,9,2.1,4
2012/4/12 8:57,1.1,6,1.1,9,2.2,3
2012/4/12 8:58,1.1,5,1.2,9,2.2,3
2012/4/12 8:59,1.1,5,1.2,9,1.9,4
2012/4/12 9:00,1.1,4,1.1,8,1.4,7
2012/4/12 9:01,1.1,4,1.2,8,1.4,3
2012/4/12 9:02,1,4,1.1,8,1.3,3
2012/4/12 9:03,1,3,1,8,1,15
2012/4/12 9:04,0.9,3,1,8,1.5,10
2012/4/12 9:05,1,3,1,7,2.5,7
2012/4/12 9:06,0.9,4,1,5,1.8,7
2012/4/12 9:07,0.9,4,0.9,5,3.1,8
2012/4/12 9:08,0.9,5,0.9,5,2.7,8
2012/4/12 9:09,1,6,1,4,2.5,6
2012/4/12 9:10,1,7,1,4,2.1,7
2012/4/12 9:11,1,7,1,4,1.5,4
2012/4/12 9:12,1.1,7,1.1,7,1.3,5
2012/4/12 9:13,1.1,7,1.1,7,1.5,5
2012/4/12 9:14,1.2,6,1.2,6,2.6,5
2012/4/12 9:15,1.3,6,1.3,6,2.7,5
2012/4/12 9:16,1.4,6,1.4,6,2.5,3
2012/4/12 9:17,1.3,6,1.4,6,2.1,5
2012/4/12 9:18,1.4,6,1.4,6,3.5,7
2012/4/12 9:19,1.5,5,1.5,6,2.4,5
2012/4/12 9:20,1.4,5,1.4,6,1.5,5
2012/4/12 9:21,1.5,6,1.5,6,3.8,7
2012/4/12 9:22,1.6,6,1.6,6,3.7,7
2012/4/12 9:23,1.7,6,1.7,6,1.9,7
2012/4/12 9:24,1.6,6,1.7,6,1,4
2012/4/12 9:25,1.4,6,1.6,6,0.8,3
2012/4/12 9:26,1.3,6,1.4,6,1,5
2012/4/12 9:27,1.2,6,1.3,6,1.1,6
2012/4/12 9:28,1,6,1.2,6,1.4,6
2012/4/12 9:29,1,6,1,6,1.8,6
2012/4/12 9:30,1.1,6,1.1,6,2.5,6
2012/4/12 9:31,1,6,1.1,6,2.1,8
2012/4/12 9:32,0.8,6,0.9,6,1.1,5
2012/4/12 9:33,0.7,6,0.8,6,0.5,9
2012/4/12 9:34,0.8,7,0.8,6,2.2,8
2012/4/12 9:35,1,7,1,6,4.2,8
2012/4/12 9:36,1.1,8,1.1,6,4.2,10
2012/4/12 9:37,1.2,8,1.2,6,2.5,9
2012/4/12 9:38,1.2,9,1.2,8,2.1,8
2012/4/12 9:39,1.2,9,1.2,8,1.8,10
2012/4/12 9:40,1.2,9,1.2,8,3.3,9
2012/4/12 9:41,1.2,10,1.2,8,2,9
2012/4/12 9:42,1.1,10,1.2,8,0.8,2
2012/4/12 9:43,1.2,10,1.2,8,1.6,7
2012/4/12 9:44,1.2,10,1.2,8,3.5,8
2012/4/12 9:45,1.3,10,1.3,10,4.7,8
2012/4/12 9:46,1.3,10,1.3,10,4.2,9
2012/4/12 9:47,1.4,9,1.4,10,4.1,9
2012/4/12 9:48,1.4,9,1.4,10,3.6,9
2012/4/12 9:49,1.6,9,1.6,9,3.7,9
2012/4/12 9:50,1.6,9,1.6,9,1.8,10
2012/4/12 9:51,1.7,9,1.7,9,3.3,9
2012/4/12 9:52,1.8,8,1.8,9,3.5,8
2012/4/12 9:53,1.9,8,1.9,8,2.7,9
2012/4/12 9:54,2.1,8,2.1,8,4.7,8
2012/4/12 9:55,2,8,2.1,8,4.1,8
2012/4/12 9:56,2.1,8,2.1,8,4.2,8
2012/4/12 9:57,2.2,8,2.2,8,4.3,8
2012/4/12 9:58,2.3,8,2.3,8,4.1,8
2012/4/12 9:59,2.3,8,2.3,8,3.5,9
2012/4/12 10:00,2.4,8,2.4,8,4.1,8
2012/4/12 10:01,2.4,8,2.5,8,4.3,9
2012/4/12 10:02,2.4,8,2.4,8,3.6,8
2012/4/12 10:03,2.5,8,2.5,8,3.9,7
2012/4/12 10:04,2.4,8,2.5,8,4.2,8
2012/4/12 10:05,2.4,8,2.4,8,3.7,8
2012/4/12 10:06,2.3,8,2.4,8,2.9,8
2012/4/12 10:07,2.2,8,2.3,8,2.4,5
2012/4/12 10:08,1.9,8,2.1,8,1.5,6
2012/4/12 10:09,1.8,8,1.9,8,2.6,7
2012/4/12 10:10,1.8,8,1.8,8,2.7,6
2012/4/12 10:11,1.8,8,1.8,8,4.3,9
2012/4/12 10:12,1.9,7,1.9,8,4.2,7
2012/4/12 10:13,1.8,8,1.9,8,3.1,9
2012/4/12 10:14,1.7,7,1.8,8,3,9
2012/4/12 10:15,1.6,8,1.7,8,2.7,9
2012/4/12 10:16,1.6,8,1.6,8,3.8,8
2012/4/12 10:17,1.7,8,1.7,8,3,8
2012/4/12 10:18,1.8,8,1.8,8,2.6,9
2012/4/12 10:19,1.7,9,1.8,8,1,10
2012/4/12 10:20,1.6,9,1.7,8,1.6,6
2012/4/12 10:21,1.6,9,1.6,8,3.9,9
2012/4/12 10:22,1.6,9,1.6,7,3.7,9
2012/4/12 10:23,1.6,9,1.6,8,2.9,10
2012/4/12 10:24,1.6,9,1.6,8,3.1,11
2012/4/12 10:25,1.7,10,1.7,8,3.3,12
2012/4/12 10:26,1.7,10,1.7,8,3.8,12
2012/4/12 10:27,1.7,10,1.8,8,3.5,13
2012/4/12 10:28,1.6,10,1.7,9,2.1,8
2012/4/12 10:29,1.7,10,1.7,10,2.7,7
2012/4/12 10:30,1.8,10,1.8,10,4.2,8
2012/4/12 10:31,1.7,10,1.8,10,2.9,8
2012/4/12 10:32,1.6,10,1.7,10,3,8
2012/4/12 10:33,1.7,10,1.7,10,4.9,8
2012/4/12 10:34,1.8,10,1.8,10,4.9,7
2012/4/12 10:35,1.8,9,1.8,10,4.2,8
2012/4/12 10:36,1.8,8,1.9,9,3.7,8
2012/4/12 10:37,1.8,8,1.8,9,3.8,8
2012/4/12 10:38,1.9,8,1.9,9,3.3,8
2012/4/12 10:39,2,8,2,8,4.7,9
2012/4/12 10:40,1.9,8,2,8,3.9,9
2012/4/12 10:41,2,8,2,8,3.9,10
2012/4/12 10:42,2,8,2,8,4.4,8
2012/4/12 10:43,2.1,8,2.1,8,4.1,8
2012/4/12 10:44,2,8,2.1,8,5.6,8
2012/4/12 10:45,2,8,2,8,4.4,9
2012/4/12 10:46,2,9,2,8,3.8,9
2012/4/12 10:47,2,9,2,8,2.5,9
2012/4/12 10:48,1.9,9,1.9,8,2.2,9
2012/4/12 10:49,1.7,9,1.9,8,1.4,7
2012/4/12 10:50,1.7,9,1.8,8,2.2,9
2012/4/12 10:51,1.8,9,1.8,8,4.5,9
2012/4/12 10:52,1.9,9,1.9,8,4.4,8
2012/4/12 10:53,1.8,8,1.9,8,2.7,7
2012/4/12 10:54,1.6,9,1.8,8,1,10
2012/4/12 10:55,1.5,8,1.6,8,2.1,8
2012/4/12 10:56,1.5,8,1.5,9,5,8
2012/4/12 10:57,1.7,8,1.7,9,4.3,9
2012/4/12 10:58,1.7,8,1.7,9,3.9,9
2012/4/12 10:59,1.9,8,1.9,9,3.6,8
2012/4/12 11:00,2,8,2,8,3.7,8
2012/4/12 11:01,1.9,8,2,8,2.7,8
2012/4/12 11:02,1.8,8,1.9,8,4.2,7
2012/4/12 11:03,1.8,8,1.8,8,3.6,8
2012/4/12 11:04,2,8,2,8,4.3,9
2012/4/12 11:05,2.1,8,2.2,8,4.1,8
2012/4/12 11:06,2,8,2.1,8,2,5
2012/4/12 11:07,1.8,8,2,8,2.9,8
2012/4/12 11:08,1.8,8,1.8,8,3.6,9
2012/4/12 11:09,1.8,8,1.8,8,4.3,8
2012/4/12 11:10,1.9,8,1.9,8,4.7,8
2012/4/12 11:11,1.9,8,1.9,8,3.3,9
2012/4/12 11:12,1.8,9,1.9,8,2.9,8
2012/4/12 11:13,1.9,9,1.9,8,4.1,11
2012/4/12 11:14,2,9,2,8,4.7,10
2012/4/12 11:15,1.9,10,2,8,3.1,9
2012/4/12 11:16,1.9,10,1.9,8,1.6,14
2012/4/12 11:17,1.9,9,1.9,9,2.2,4
2012/4/12 11:18,1.9,9,1.9,9,2.7,7
2012/4/12 11:19,1.8,9,1.9,9,2.7,6